Dewpoint
62 64 66 67 67 66 66 67 67 69 69 70 70 69 69 69 68 66 66 66 65 65 64 64 64 64 64 64 64 64 63 62 62 60 58 58 57 57 59 60 59 60 61 60 60 58 55 53 53 55 58 59 60 59 61 60 60 60 61 61 61 60 60
64 64 65 65 65 66 67 69 67 68 70 70 69 70 69 68 67 66 66 66 65 65 63 65 64 64 64 64 64 63 63 62 62 61 60 58 58 58 58 58 58 58 56 58 59 59 55 54 52 52 54 57 58 58 59 60 59 60 60 59 59 61 60
64 64 64 64 65 66 68 69 67 67 68 69 70 69 68 68 67 66 65 65 65 65 63 64 64 64 64 64 63 63 63 62 62 61 60 60 60 60 59 58 57 56 56 56 56 55 55 56 52 51 52 55 54 55 58 58 58 58 58 59 61 59 60
64 65 63 65 65 68 67 67 67 66 67 69 70 69 68 68 68 66 66 65 66 66 64 64 63 63 63 63 63 62 62 62 60 61 61 61 60 59 58 56 55 55 55 54 54 54 55 54 52 52 53 51 53 55 57 57 57 55 56 58 58 57 59
66 65 65 65 67 68 68 67 65 67 67 68 69 68 69 68 68 66 66 65 65 65 64 64 64 63 62 61 60 61 61 61 61 60 59 59 59 57 57 56 55 56 55 55 54 55 54 53 53 52 50 52 53 50 52 55 56 55 56 55 54 55 58
66 67 66 66 66 67 67 67 67 65 66 66 69 68 69 69 67 67 65 65 65 65 64 63 63 63 62 61 60 60 59 59 58 59 57 59 58 57 55 55 55 55 54 55 55 54 54 54 53 50 50 51 51 52 51 51 52 52 53 52 52 56 54
66 68 67 67 68 67 67 67 66 65 65 67 66 68 68 67 66 66 66 66 65 64 64 63 63 62 62 58 60 58 59 59 59 58 58 58 58 57 57 56 56 54 54 54 54 54 53 53 52 52 52 51 53 51 51 49 47 51 51 49 51 54 53
67 68 68 67 67 67 67 66 66 67 67 66 66 67 67 66 66 66 66 65 64 64 63 63 62 62 61 59 58 59 58 58 58 57 57 57 56 56 57 56 56 55 53 53 53 54 53 53 53 52 52 50 50 52 51 49 47 49 48 52 50 54 50
66 68 68 68 67 68 67 66 67 68 67 67 68 67 66 67 66 65 65 64 64 63 62 62 61 60 59 58 58 58 58 58 57 57 56 57 56 57 56 56 55 53 54 53 53 53 52 53 53 53 52 51 49 47 50 50 50 48 49 48 48 49 50
66 66 67 67 68 69 69 68 68 67 66 67 66 66 66 66 66 65 64 64 63 62 62 61 60 59 59 58 58 57 57 56 56 56 55 56 57 56 55 55 54 53 53 54 53 53 53 53 53 52 52 51 51 49 47 48 50 49 48 47 48 47 48
65 66 67 66 67 68 68 68 68 66 65 67 66 66 66 65 65 64 63 62 62 62 61 60 59 58 59 57 57 57 56 56 55 55 55 56 56 56 55 55 54 52 53 53 52 53 53 53 52 52 51 52 52 49 49 47 48 49 49 49 49 46 49
65 65 67 67 68 68 67 68 65 66 65 65 65 65 64 63 63 63 62 61 62 61 61 59 58 57 57 57 56 55 55 55 54 54 55 56 55 55 55 54 54 52 53 52 53 53 53 52 51 50 50 51 51 51 50 48 46 49 50 48 48 47 49
65 65 66 67 65 66 66 65 65 65 65 64 64 65 63 62 62 62 61 61 60 60 59 57 57 57 57 56 56 55 55 54 53 53 54 54 54 54 54 53 53 53 52 52 52 52 51 52 52 50 51 51 50 51 50 48 47 47 48 47 47 47 48
64 65 65 65 64 65 65 65 64 64 64 64 64 64 63 61 61 61 60 60 59 59 58 57 57 57 56 55 55 54 53 52 52 52 52 54 53 53 52 51 51 52 52 52 51 51 50 50 51 50 51 50 49 50 50 49 46 47 48 49 47 47 47
64 65 64 65 65 65 65 65 64 63 63 63 63 62 60 61 61 60 59 59 58 57 57 56 56 56 55 54 54 54 53 52 52 51 52 51 52 53 52 50 50 50 51 51 51 49 50 50 50 48 48 49 48 49 50 49 47 45 46 48 46 47 47
64 64 64 64 64 64 64 65 63 63 63 63 63 63 62 60 60 59 59 58 57 56 55 55 56 56 55 54 53 54 53 52 52 52 51 50 48 49 50 51 50 50 51 51 50 50 50 50 50 49 49 49 49 50 50 50 48 46 47 45 47 46 46
64 64 63 64 64 64 64 63 62 63 63 63 63 62 61 59 59 59 58 57 56 55 55 56 56 55 54 53 52 52 52 52 51 50 49 48 48 49 49 49 50 50 50 49 48 47 48 49 48 48 49 48 48 49 49 49 49 48 46 45 46 44 46
64 64 63 63 63 64 63 63 63 63 63 63 61 62 60 59 59 58 59 56 55 55 55 55 54 54 54 53 52 53 51 51 51 50 50 50 49 49 49 49 48 47 47 47 47 47 47 48 47 48 48 47 46 47 48 47 47 47 46 45 45 46 46
63 63 63 63 63 63 63 62 62 62 62 61 61 61 59 59 58 57 56 55 54 54 54 54 53 52 52 53 53 52 52 51 50 49 49 49 49 49 49 47 47 47 45 46 45 46 47 48 48 48 48 47 46 47 47 47 47 46 46 45 46 45 46
64 63 63 63 62 61 61 61 61 61 62 61 60 60 59 58 58 57 55 55 54 54 53 53 53 53 52 52 51 51 51 50 50 50 49 48 49 49 48 48 48 47 45 44 43 44 45 47 46 46 48 48 47 48 47 46 46 46 46 46 45 45 44
62 63 62 62 61 61 61 60 60 60 61 60 59 58 58 58 57 56 55 53 54 54 53 52 52 52 51 52 52 51 51 51 51 50 51 49 49 48 47 47 47 46 44 43 44 43 44 45 45 45 46 48 48 48 47 46 46 45 45 45 43 42 43
62 61 60 60 61 60 59 59 59 59 59 58 58 57 57 57 56 55 54 53 53 53 53 53 53 52 51 50 51 51 50 50 50 50 50 49 49 47 47 47 47 46 48 47 46 46 45 46 45 44 46 47 48 47 47 46 45 44 44 44 43 44 43
60 60 60 60 60 59 58 58 58 58 57 57 57 57 57 56 55 55 53 53 53 54 54 53 54 49 49 51 51 51 51 51 50 49 49 48 48 47 47 48 49 48 48 47 46 43 42 43 44 46 45 47 47 47 46 45 44 44 44 42 43 43 43
60 59 59 58 58 58 57 57 57 57 56 56 57 56 56 55 55 54 53 53 54 55 54 55 46 45 46 47 51 52 51 50 49 48 48 47 47 47 48 47 50 49 48 47 47 43 42 42 41 41 41 42 44 47 47 45 44 44 42 42 43 44 43
59 59 59 57 57 57 57 56 56 56 56 57 57 56 56 54 54 53 53 53 54 55 55 47 44 45 46 47 48 53 51 49 49 48 48 48 47 46 47 47 48 48 46 48 48 46 45 42 41 41 40 40 40 40 41 45 46 44 45 43 43 44 44
58 58 58 57 57 56 55 55 55 56 56 56 56 55 54 54 54 53 53 52 53 54 53 42 43 44 45 45 46 49 49 49 48 47 48 48 47 47 47 47 48 46 46 48 43 42 47 46 43 42 42 42 41 40 38 39 40 46 46 45 45 44 44
58 57 57 56 55 55 54 54 56 56 56 56 55 54 55 54 54 53 52 52 52 53 53 43 41 42 42 43 44 44 48 48 48 46 47 47 47 47 47 46 45 46 47 44 43 42 41 42 45 47 47 45 45 48 41 40 40 40 43 46 45 44 45
57 56 55 55 54 54 54 55 55 55 55 55 54 53 53 53 53 52 52 52 52 52 53 40 40 40 40 40 42 41 49 48 47 48 48 47 46 47 46 47 46 46 44 41 41 45 46 44 45 45 44 45 44 44 45 46 46 46 46 47 46 45 46
57 56 55 54 54 54 54 54 54 55 55 54 54 53 53 52 52 51 52 52 52 52 48 38 38 39 39 39 40 48 48 48 47 47 47 47 46 47 46 45 45 43 41 39 42 39 43 48 42 42 43 44 45 45 45 43 40 40 45 45 46 45 45
56 55 54 54 53 54 53 53 54 54 54 53 52 51 52 52 51 51 51 51 52 51 48 40 37 38 38 38 41 49 49 47 46 46 47 47 46 46 46 43 43 42 41 39 42 38 38 41 43 41 41 43 44 44 44 46 41 39 39 39 39 38 38
55 54 54 53 53 53 53 54 54 54 53 52 51 51 51 51 51 51 51 51 50 50 49 41 37 38 38 38 43 48 47 47 47 45 46 46 46 44 48 47 50 42 41 42 38 38 38 47 42 41 41 41 41 43 44 46 47 46 39 39 39 38 38
55 54 53 53 53 53 53 53 53 55 53 52 51 51 50 50 50 50 50 50 48 48 47 42 37 37 37 38 44 47 45 45 46 46 45 44 43 40 41 45 42 44 47 45 37 37 37 44 42 40 40 40 39 42 44 44 45 45 45 47 47 49 46
55 54 53 54 54 55 54 53 53 54 52 50 50 49 49 49 49 48 48 46 47 47 46 45 41 37 37 38 38 49 45 44 45 44 43 40 40 41 40 41 41 36 36 37 37 37 37 38 44 40 39 38 38 40 45 45 43 45 45 43 43 43 43
55 56 57 57 54 53 53 53 52 53 52 50 49 48 49 49 47 46 45 44 45 46 46 44 42 36 37 37 37 39 44 44 43 42 40 38 39 40 40 38 40 37 36 36 37 37 37 38 39 40 39 38 40 46 42 44 47 45 44 44 44 43 42
56 55 55 53 52 52 53 52 52 51 51 50 49 48 48 46 44 44 45 45 46 45 44 45 42 38 36 36 36 37 42 43 43 41 40 39 38 40 40 39 41 39 36 36 36 37 37 38 39 38 43 36 37 37 49 41 41 41 40 41 39 39 40
56 55 54 53 52 52 52 52 51 51 50 49 48 47 47 45 45 44 44 43 43 43 43 41 39 41 36 36 36 37 38 41 37 45 40 40 40 40 41 41 40 38 35 36 36 36 37 37 40 40 36 36 36 36 39 37 38 39 38 38 39 40 39
54 54 54 53 52 53 52 50 50 49 49 51 49 47 46 45 44 42 41 40 41 40 40 41 39 39 39 36 36 36 36 36 37 42 41 40 39 39 41 42 39 35 35 36 36 36 36 37 41 35 36 36 36 37 37 37 37 38 36 35 36 37 38